Location: Sabalos
(43.2860°N, 0.1414°E)
Time: 10:53:18
(UTC+00:00)

ATLAS 2AS CENTAUR R/B - Pass Details

Date: 05 July 2020
Orbit: 930 x 1282 km, 63.7° (Epoch: 19 July)

Event Time Altitude Azimuth Distance (km) Brightness Sun altitude
Rises 22:32:01 0° 324° (NW) 4,178 7.2 -20.7°
Reaches altitude 10° 22:34:56 10° 328° (NNW) 3,170 6.3 -20.9°
Maximum altitude 22:42:29 63° 49° (NE) 1,264 3.1 -21.4°
Enters shadow 22:46:18 29° 121° (ESE) 1,913 3.6 -21.7°
